Location: Aydie
(43.5695°N, 0.1043°W)
Time: 12:55:50
(UTC+00:00)

Nadezhda 4 Rocket - Pass Details

Date: 17 November 2025
Orbit: 948 x 991 km, 82.9° (Epoch: 11 December)

Event Time Altitude Azimuth Distance (km) Brightness Sun altitude
Rises 18:12:43 0° 353° (N) 3,702 7.0 -17.9°
Reaches altitude 10° 18:15:16 10° 355° (N) 2,745 6.3 -18.4°
Maximum altitude 18:21:34 74° 81° (E) 1,014 3.9 -19.5°
Drops below altitude 10° 18:27:44 10° 167° (SSE) 2,698 6.2 -20.6°
Sets 18:30:14 0° 169° (SSE) 3,634 7.0 -21.0°
